Weather - Helsinki Query any day in the database

Current weather  

Weather data for a selected day (2006-01-01 -2020-12-04)
Enter date:     <-     scroll days         ->
day curves
Low temperature°C +1.009:20
High temperature°C +8.013:50
Low wind chill°C -208:20
Average temperature°C +4.0 
High wind speed (10 min) m/s 4.021:20
Low pressurehPa 1014.002:20
High pressurehPa 1018.023:50
Low R.H% 7014:50
High R.H% 10011:20
Day weather data as a table
Date Time Temp
°C
Chill
°C
Pressure
hPA
Wind
m/s
Hum
%
Precip
mm
2014-10-30 23:50:00 2.0  -0.9  1018.0 2.7 93 -
2014-10-30 23:20:00 2.0  -1.2  1018.0 3.1 93 -
2014-10-30 22:50:00 2.0  -1.2  1018.0 3.1 93 -
2014-10-30 22:20:00 2.0  -1.2  1018.0 3.1 93 -
2014-10-30 21:50:00 3.0  -0.4  1018.0 3.6 86 -
2014-10-30 21:20:00 3.0  -0.6  1018.0 4.0 86 -
2014-10-30 20:50:00 3.0  0.0  1017.0 3.1 93 -
2014-10-30 20:20:00 4.0  1.5  1017.0 2.7 80 -
2014-10-30 19:50:00 4.0  0.9  1017.0 3.6 86 -
2014-10-30 19:20:00 4.0  0.9  1017.0 3.6 80 -
2014-10-30 18:50:00 4.0  1.2  1017.0 3.1 86 -
2014-10-30 18:20:00 4.0  1.2  1017.0 3.1 86 -
2014-10-30 17:50:00 4.0  1.5  1017.0 2.7 86 -
2014-10-30 17:20:00 4.0  1.5  1016.0 2.7 86 -
2014-10-30 16:50:00 5.0  2.4  1016.0 3.1 80 -
2014-10-30 16:20:00 6.0  3.3  1016.0 3.6 75 -
2014-10-30 15:50:00 7.0  4.3  1016.0 4.0 70 -
2014-10-30 15:20:00 7.0  4.3  1016.0 4.0 70 -
2014-10-30 14:50:00 7.0  4.5  1016.0 3.6 70 -
2014-10-30 14:20:00 7.0  4.3  1016.0 4.0 75 -
2014-10-30 13:50:00 8.0  5.5  1016.0 4.0 75 -
2014-10-30 13:20:00 7.0  4.5  1016.0 3.6 81 -
2014-10-30 12:50:00 6.0  3.1  1016.0 4.0 86 -
2014-10-30 12:20:00 6.0  3.1  1016.0 4.0 93 -
2014-10-30 11:50:00 6.0  3.3  1016.0 3.6 93 -
2014-10-30 11:20:00 5.0  2.1  1016.0 3.6 100 -
2014-10-30 10:50:00 5.0  2.7  1016.0 2.7 93 -
2014-10-30 10:20:00 3.0  0.8  1016.0 2.2 100 -
2014-10-30 09:50:00 4.0  3.1  1016.0 1.3 100 -
2014-10-30 09:20:00 1.0  -1.5  1016.0 2.2 100 -
2014-10-30 08:50:00 1.0  -1.5  1016.0 2.2 100 -
2014-10-30 08:20:00 1.0  -2.0  1016.0 2.7 93 -
2014-10-30 07:50:00 2.0  -0.9  1016.0 2.7 100 -
2014-10-30 07:20:00 3.0  0.0  1016.0 3.1 100 -
2014-10-30 06:50:00 3.0  0.3  1015.0 2.7 100 -
2014-10-30 06:20:00 3.0  0.8  1015.0 2.2 100 -
2014-10-30 05:50:00 4.0  1.5  1015.0 2.7 93 -
2014-10-30 05:20:00 4.0  2.0  1015.0 2.2 93 -
2014-10-30 04:50:00 3.0  0.3  1015.0 2.7 100 -
2014-10-30 04:20:00 3.0  0.3  1015.0 2.7 100 -
2014-10-30 03:50:00 3.0  0.8  1015.0 2.2 100 -
2014-10-30 03:20:00 3.0  0.0  1015.0 3.1 93 -
2014-10-30 02:50:00 3.0  0.0  1015.0 3.1 100 -
2014-10-30 02:20:00 4.0  0.9  1014.0 3.6 93 -
2014-10-30 01:50:00 4.0  0.9  1014.0 3.6 93 -
2014-10-30 01:20:00 3.0  0.3  1014.0 2.7 100 -
2014-10-30 00:50:00 4.0  1.5  1014.0 2.7 93 -
2014-10-30 00:20:00 4.0  1.5  1014.0 2.7 93 -
Unit conversions: